TimeCST,TemperatureF,Dew PointF,Humidity,Sea Level PressureIn,VisibilityMPH,Wind Direction,Wind SpeedMPH,Gust SpeedMPH,PrecipitationIn,Events,Conditions,WindDirDegrees,DateUTC
12:53 AM,25.0,18.0,75,30.38,10.0,North,5.8,-,N/A,,Clear,350,2013-01-14 06:53:00
1:53 AM,25.0,17.1,72,30.40,10.0,Calm,Calm,-,N/A,,Clear,0,2013-01-14 07:53:00
2:53 AM,24.1,15.1,69,30.38,10.0,NNE,4.6,-,N/A,,Clear,30,2013-01-14 08:53:00
3:53 AM,23.0,15.1,72,30.35,10.0,NE,5.8,-,N/A,,Clear,40,2013-01-14 09:53:00
4:53 AM,23.0,16.0,74,30.38,10.0,Calm,Calm,-,N/A,,Clear,0,2013-01-14 10:53:00
5:53 AM,23.0,16.0,74,30.35,10.0,North,6.9,-,N/A,,Clear,360,2013-01-14 11:53:00
6:53 AM,26.1,17.1,69,30.43,10.0,South,4.6,-,N/A,,Mostly Cloudy,180,2013-01-14 12:53:00
7:53 AM,26.1,18.0,71,30.44,10.0,Calm,Calm,-,N/A,,Overcast,0,2013-01-14 13:53:00
8:53 AM,27.0,17.1,66,30.45,10.0,ENE,6.9,-,N/A,,Overcast,70,2013-01-14 14:53:00
9:53 AM,28.9,17.1,61,30.47,10.0,ENE,6.9,-,N/A,,Overcast,60,2013-01-14 15:53:00
10:53 AM,30.9,16.0,54,30.47,10.0,North,6.9,-,N/A,,Partly Cloudy,360,2013-01-14 16:53:00
11:53 AM,33.1,12.9,43,30.42,10.0,NE,5.8,-,N/A,,Clear,40,2013-01-14 17:53:00
12:53 PM,36.0,14.0,41,30.38,10.0,NE,5.8,-,N/A,,Clear,50,2013-01-14 18:53:00
1:53 PM,37.0,15.1,41,30.35,10.0,ENE,4.6,-,N/A,,Clear,70,2013-01-14 19:53:00
2:53 PM,39.2,17.6,42,30.32,10.0,NE,5.8,-,N/A,,Clear,40,2013-01-14 20:53:00
3:53 PM,39.9,19.0,43,30.33,10.0,NNE,5.8,-,N/A,,Clear,30,2013-01-14 21:53:00
4:53 PM,39.9,19.0,43,30.32,10.0,Variable,3.5,-,N/A,,Clear,0,2013-01-14 22:53:00
5:53 PM,36.0,21.0,55,30.32,10.0,Calm,Calm,-,N/A,,Clear,0,2013-01-14 23:53:00
6:53 PM,34.0,23.0,64,30.33,10.0,Calm,Calm,-,N/A,,Clear,0,2013-01-15 00:53:00
7:53 PM,32.0,21.9,66,30.33,10.0,Calm,Calm,-,N/A,,Clear,0,2013-01-15 01:53:00
8:53 PM,30.9,21.9,69,30.34,10.0,ENE,5.8,-,N/A,,Clear,70,2013-01-15 02:53:00
9:53 PM,30.0,19.9,66,30.34,10.0,ENE,5.8,-,N/A,,Clear,70,2013-01-15 03:53:00
10:53 PM,30.0,17.1,59,30.35,10.0,East,3.5,-,N/A,,Clear,80,2013-01-15 04:53:00
11:53 PM,28.9,16.0,58,30.34,10.0,East,5.8,-,N/A,,Clear,100,2013-01-15 05:53:00